SCP
0 0 0 0 0 0 0 0 0 0 0 0 0 0 0 0 0 0 0 0 0 0 0 0 0 0 0 0 0 0 0 0 0 0 0 0 0 0 0 0 0 0 0 0
0 0 0 0 0 0 0 0 0 0 0 0 0 0 0 0 0 0 0 0 0 0 0 0 0 0 0 0 0 0 0 0 0 0 0 0 0 0 0 0 0 0 0 0
0 0 0 0 0 0 0 0 0 0 0 0 0 -0 0 0 0 0 0 0 0 0 0 0 0 0 0 0 0 0 0 0 0 0 0 0 0 0 0 0 0 0 0 0
0 0 0 0 0 0 0 0 0 0 0 0 0 -0 0 0 0 0 0 0 0 0 0 0 0 0 0 0 0 0 0 0 0 0 0 0 0 0 0 0 0 0 0 0
0 0 0 0 0 0 0 0 0 0 0 0 0 0 0 0 0 0 0 0 0 0 0 0 0 0 0 0 0 0 0 0 0 0 0 0 0 0 0 0 0 0 0 0
0 0 0 0 0 0 0 0 0 0 0 0 0 0 0 0 0 0 0 0 0 0 0 0 0 0 0 0 0 0 0 0 0 0 0 0 0 0 0 0 0 0 0 0
0 0 0 0 0 0 0 0 0 0 0 0 0 0 0 0 0 0 0 0 0 0 0 0 0 0 0 0 0 0 0 0 0 0 0 0 0 0 0 0 0 0 0 0
0 0 0 0 0 0 0 0 0 0 0 0 0 0 0 0 0 0 0 0 0 0 0 0 0 0 0 0 0 0 0 0 0 0 0 0 0 0 0 0 0 0 0 0
0 0 0 0 0 0 0 0 0 0 0 0 0 0 0 0 0 0 0 0 0 0 0 0 0 0 0 0 0 0 0 0 0 0 0 0 0 0 0 0 0 0 0 0
0 0 0 0 0 0 0 0 0 0 0 0 0 0 0 0 0 0 0 0 0 0 0 0 0 0 0 0 0 0 0 0 0 0 0 0 0 0 0 0 0 0 0 0
0 0 0 0 0 0 0 0 0 0 0 0 0 0 0 0 0 0 0 0 0 0 0 0 0 0 0 0 0 0 0 0 0 0 0 0 0 0 0 0 0 0 0 0
0 0 0 0 0 0 0 0 0 0 0 0 0 0 0 0 0 0 0 0 -0 -0 0 0 0 0 0 0 0 0 0 0 0 0 0 0 0 0 0 0 0 0 0 0
0 0 0 0 0 0 0 0 0 0 0 0 0 0 0 0 0 0 0 0 0 -0 -0 -0 0 0 0 0 0 0 0 0 0 0 0 0 0 0 0 0 0 0 0 0
0 0 0 0 0 0 0 0 0 0 0 0 0 0 0 0 0 0 0 0 0 0 -0 0 0 0 0 0 0 0 0 0 0 0 0 0 0 0 0 0 0 0 0 0
0 0 0 0 0 0 0 0 0 0 0 0 0 0 0 0 0 0 0 0 0 0 0 0 0 0 0 0 0 0 0 0 0 0 0 0 0 0 0 0 0 0 0 0
0 0 0 0 0 0 0 0 0 0 0 0 0 0 0 0 0 0 0 0 -0 -0 -0 0 0 0 0 0 0 0 0 0 0 0 0 0 0 0 0 0 0 0 0 0
0 0 0 0 0 0 0 0 0 0 0 0 0 0 0 0 0 0 -0 0 0 0 0 0 0 0 0 0 0 0 0 0 0 0 0 0 0 0 0 0 0 0 0 0
0 0 0 0 0 0 0 0 0 0 0 0 0 0 0 0 0 0 0 0 0 0 0 0 0 0 0 0 0 0 0 0 0 0 0 0 0 0 0 0 0 0 0 0
0 0 0 0 0 -0 0 0 0 0 0 0 0 0 0 0 0 0 0 0 0 0 0 0 0 0 0 0 0 0 0 0 0 0 0 0 0 0 0 0 0 0 0 0
0 0 0 0 0 0 0 0 0 0 0 0 0 0 0 0 0 0 0 0 0 0 0 0 0 0 0 0 0 0 0 0 0 0 0 0 0 0 0 0 0 0 0 0
0 0 0 0 0 0 0 -0 -0 -0 0 0 -0 -0 0 0 0 0 0 0 0 0 0 0 0 0 0 0 0 0 0 0 0 0 0 0 0 0 0 0 0 0 0 0
0 0 0 0 0 0 0 0 0 -0 -0 -0 -0 -0 -0 -0 -0 -0 -0 0 0 0 0 0 0 0 0 0 0 0 0 0 0 0 0 0 0 0 0 0 0 0 0 0
0 0 0 0 0 0 -0 -0 -0 -0 -0 -0 -0 -0 -0 -0 -0 -0 -0 -0 -0 -0 -0 -0 -0 0 0 0 0 0 0 0 0 0 0 0 0 0 0 0 0 0 0 0
0 0 0 0 0 0 0 0 -0 -0 -0 -0 -0 -0 -0 -0 -0 -0 -0 -0 -0 -0 -0 -0 -0 -0 -0 -0 -0 0 0 0 0 0 0 0 0 0 0 0 0 0 0 0
0 0 0 0 0 0 0 0 0 0 0 0 0 -0 0 -0 0 0 0 0 -0 -0 0 0 -0 -0 -0 -0 -0 -0 0 0 0 0 0 0 0 0 0 0 0 0 0 0
0 0 0 0 0 0 0 0 0 0 0 0 -0 -0 -0 -0 -0 -0 0 0 0 0 0 0 0 -0 -0 0 0 0 0 0 0 0 0 0 0 0 0 0 0 0 0 0
Wind_Speed_500mb
13 9 20 44 34 37 5 12 18 15 13 11 20 34 40 58 36 49 71 85 91 88 99 86 87 88 85 88 90 92 89 89 90 91 87 87 87 87 85 80 74 72 69 65
2 18 37 15 11 17 22 38 40 37 34 11 32 48 29 23 47 64 63 80 98 101 105 107 107 101 88 84 88 97 98 96 93 92 92 91 88 88 85 81 79 77 73 69
31 20 28 20 17 18 31 29 35 37 12 9 23 52 27 20 52 74 81 93 91 97 106 106 104 99 82 79 81 92 102 98 95 92 93 93 89 86 87 88 86 84 78 73
16 24 31 15 16 28 41 27 32 27 3 18 6 46 5 15 30 33 63 73 89 96 100 107 110 94 74 73 77 86 98 100 94 94 95 99 99 91 92 91 90 87 81 76
19 7 11 19 42 20 32 11 15 7 9 8 14 11 8 19 19 34 44 73 87 91 92 97 92 78 67 69 72 83 94 100 96 93 92 92 94 90 85 88 88 84 81 79
28 7 10 16 9 17 1 4 6 8 5 10 27 21 65 14 22 19 25 68 87 87 88 101 69 46 57 64 70 84 94 99 93 89 89 91 90 88 88 90 86 83 84 83
6 13 10 16 10 5 9 9 7 6 1 19 6 16 57 12 13 20 31 57 75 81 83 87 63 49 55 64 74 85 89 93 90 88 89 89 88 89 86 86 85 86 87 88
5 36 17 10 24 17 19 23 13 17 20 31 13 15 30 24 28 52 64 78 81 89 85 68 51 45 49 58 71 81 84 89 88 88 87 87 89 89 87 86 85 86 85 84
11 21 4 10 6 18 6 13 29 9 2 3 12 30 33 25 20 17 31 60 72 87 86 61 49 48 49 57 66 70 79 83 83 82 84 91 93 92 91 89 86 84 84 82
11 21 4 8 4 7 13 1 3 3 6 13 15 14 27 39 19 28 27 33 70 70 71 52 49 48 48 53 56 60 66 77 75 77 84 89 91 93 95 95 90 87 84 83
3 11 20 2 15 14 2 8 9 3 8 30 35 24 60 48 20 17 20 26 39 32 29 37 45 45 45 41 49 53 62 69 76 76 74 78 86 96 103 102 95 90 85 80
17 10 13 40 37 12 14 22 32 24 31 21 32 37 57 42 13 16 18 39 29 36 39 35 36 40 39 36 47 50 54 63 63 68 76 79 87 92 98 103 100 94 89 82
11 6 13 8 20 37 29 35 39 33 35 48 41 38 59 51 51 37 30 58 59 62 56 34 25 31 37 41 46 54 59 63 66 73 77 84 91 94 92 95 95 94 92 85
25 33 35 38 38 6 12 38 44 45 33 50 45 58 58 68 51 43 57 78 74 77 81 78 73 68 72 76 72 72 76 64 61 68 82 90 90 88 85 89 92 92 91 87
16 38 40 48 57 58 58 56 53 45 47 33 48 46 43 62 66 47 49 47 41 55 64 69 73 81 92 96 87 87 74 70 75 83 90 92 88 87 88 89 89 87 87 84
16 17 32 49 49 54 63 63 63 69 66 55 57 60 58 71 94 71 65 68 57 58 69 79 85 87 101 91 70 80 93 94 88 90 89 88 90 88 89 87 84 84 84 83
17 14 19 42 29 33 45 61 61 63 57 45 52 61 56 54 47 53 55 40 45 53 65 63 65 75 85 95 98 102 99 103 99 88 90 87 87 87 84 80 81 83 84 81
44 44 29 40 37 58 46 23 37 55 61 30 27 35 32 36 56 45 48 57 58 62 69 81 86 77 68 84 91 93 92 77 79 87 81 78 79 78 78 76 76 79 81 82
45 39 18 20 37 44 37 15 15 13 8 31 30 39 29 56 58 11 62 69 67 68 77 84 90 90 91 71 57 56 71 82 80 78 67 67 70 71 72 72 74 78 80 83
23 19 26 20 27 14 14 28 50 22 21 42 25 31 24 45 22 27 78 71 75 79 81 93 91 88 87 82 65 49 47 64 66 60 56 60 65 66 69 71 73 75 78 80
8 10 18 28 27 13 30 39 57 10 21 44 26 32 38 22 25 58 74 72 77 76 83 87 89 89 72 77 68 60 42 45 49 50 49 53 57 60 64 67 72 75 80 85
11 10 7 10 9 24 60 37 15 22 43 28 27 34 39 49 67 70 72 80 76 83 81 71 77 84 76 64 70 63 54 43 41 38 39 47 54 59 65 65 70 74 81 85
8 9 6 11 12 43 45 30 54 49 16 19 45 67 62 59 58 61 66 66 71 73 78 76 73 79 89 73 61 67 62 63 59 46 39 44 52 57 64 67 74 78 85 91
8 8 7 7 15 28 49 59 37 26 42 56 50 54 61 52 61 57 58 74 73 79 80 74 71 76 88 79 75 64 61 61 65 62 66 61 49 52 57 60 72 80 89 98
15 8 15 21 35 49 43 53 45 44 47 45 50 65 61 41 69 60 64 73 75 76 77 72 68 76 88 85 90 81 65 71 70 69 72 67 65 62 59 63 78 88 93 98
31 33 24 32 47 42 56 67 51 47 36 51 58 57 69 58 63 70 78 82 73 80 80 89 92 90 98 92 96 82 72 68 74 77 77 81 76 75 73 75 83 86 93 91
Wind_Direction_500mb
181 138 210 227 211 229 195 225 233 248 249 206 235 241 247 266 261 248 260 265 263 262 267 262 256 257 257 253 249 246 239 239 231 226 224 225 227 227 228 229 230 232 234 236
153 214 226 240 216 227 243 253 261 269 261 230 266 259 245 247 263 266 253 255 262 265 269 268 263 263 260 257 253 245 239 238 234 229 227 228 229 230 232 232 232 233 234 236
227 228 228 223 233 234 232 234 252 255 297 233 295 278 234 241 246 263 265 262 262 260 266 267 264 264 264 256 248 242 240 237 233 229 225 228 229 230 230 230 232 233 234 235
237 246 227 195 221 212 263 218 251 260 278 274 146 295 163 210 232 248 261 262 261 266 266 266 264 263 255 255 250 243 239 235 231 229 227 228 229 228 230 232 234 234 234 236
243 196 189 219 234 185 258 187 228 229 201 341 184 252 250 217 235 247 252 259 264 268 269 265 262 264 261 251 245 240 235 231 228 228 231 231 232 234 236 236 236 236 238 239
249 205 201 220 196 200 179 86 50 51 98 278 233 192 283 197 210 235 253 256 265 269 266 268 272 257 248 242 238 237 231 228 228 229 231 232 232 234 234 235 235 236 239 239
327 230 230 188 238 185 171 102 293 326 122 230 172 175 256 261 258 223 235 254 265 267 267 263 270 239 231 233 235 235 229 226 227 228 231 233 233 236 236 238 239 238 237 238
216 288 176 168 205 199 206 199 189 204 247 261 110 229 261 226 237 242 248 253 266 264 268 267 250 235 235 226 234 235 230 226 227 229 232 232 232 235 237 239 241 242 243 244
198 258 193 189 174 157 196 191 231 288 355 21 261 273 298 269 271 293 273 270 266 264 270 260 231 228 231 228 232 236 233 229 231 234 235 234 234 235 237 240 240 243 245 245
252 267 346 17 333 250 194 173 84 214 204 235 225 243 260 275 289 277 289 278 283 284 273 253 238 236 226 233 236 236 236 236 236 235 236 239 240 241 241 242 242 242 245 245
209 227 262 2 206 222 242 245 227 244 198 256 264 255 261 277 266 273 280 332 351 331 318 272 248 237 235 235 238 236 236 233 236 237 241 244 247 247 245 245 244 244 245 245
208 188 220 242 265 221 220 248 238 239 246 238 254 254 268 271 256 276 264 292 314 326 320 297 270 254 247 240 239 236 234 235 238 241 242 245 247 248 248 248 247 246 246 244
184 228 258 202 271 269 247 246 234 247 254 253 256 260 262 268 270 246 259 283 298 305 305 300 289 275 264 253 244 249 249 242 237 240 245 247 247 247 249 251 250 248 245 241
238 250 247 258 258 242 233 235 245 243 251 253 250 259 266 270 267 266 266 271 281 287 288 289 284 276 274 279 272 273 258 247 251 253 255 251 250 252 252 250 249 246 244 239
230 252 248 251 252 262 258 260 261 243 240 241 256 257 257 268 269 269 272 280 295 295 289 285 278 274 274 273 269 263 255 250 266 262 258 256 256 253 250 248 246 244 242 238
315 282 283 271 253 243 249 255 256 256 256 262 262 259 256 263 275 282 278 289 285 283 284 280 279 276 277 273 263 260 271 267 268 258 256 254 252 250 246 245 243 241 237 233
264 279 282 273 290 298 279 245 254 258 266 258 259 261 266 273 280 290 310 23 21 352 347 344 323 301 285 279 274 271 272 272 265 256 252 249 249 248 247 243 239 238 234 230
254 261 259 274 289 268 270 230 234 247 255 309 12 20 16 352 323 325 23 19 1 349 341 339 345 344 317 292 284 279 275 263 256 255 250 246 246 246 243 239 236 233 228 226
232 244 262 254 260 273 253 30 344 339 132 25 343 347 1 352 339 62 357 343 328 327 329 331 333 332 336 333 299 283 271 259 250 244 243 247 247 243 240 235 232 229 224 223
323 276 259 285 281 285 24 345 331 291 207 16 351 329 8 343 341 316 329 331 330 329 325 327 330 330 332 335 342 308 278 257 249 244 245 250 247 244 240 235 232 230 226 225
350 319 257 267 273 286 13 359 345 286 337 335 341 353 337 341 329 318 321 321 320 319 314 320 321 323 330 329 335 347 311 272 251 244 251 254 252 247 241 235 231 226 221 219
277 287 355 345 313 253 359 351 348 293 312 328 345 337 321 308 308 308 309 312 315 316 316 313 318 316 315 315 321 320 324 323 304 293 275 265 257 249 242 235 231 224 221 220
274 180 222 187 234 295 310 304 307 301 289 314 325 319 316 311 308 305 308 311 311 307 305 308 311 312 310 301 299 314 312 307 301 301 295 283 262 247 241 236 231 221 219 219
261 242 211 316 261 279 286 294 287 301 311 312 308 301 307 305 304 306 308 309 307 305 306 308 310 306 302 304 302 283 296 303 284 281 277 274 262 255 244 239 235 228 224 221
233 279 245 268 277 282 283 294 306 300 303 290 299 306 306 305 305 306 305 304 304 304 306 307 306 299 293 293 291 290 285 288 288 272 263 257 250 245 247 249 241 236 233 231
240 254 260 265 278 289 288 295 302 304 304 311 312 307 307 306 303 306 305 306 300 300 300 302 305 300 292 291 286 284 288 290 289 275 266 254 247 244 242 240 237 232 234 233
Wind_Speed_850mb
13 9 20 44 34 37 5 12 18 15 13 11 20 34 40 58 36 49 71 85 91 88 99 86 87 88 85 88 90 92 89 89 90 91 87 87 87 87 85 80 74 72 69 65
2 18 37 15 11 17 22 38 40 37 34 11 32 48 29 23 47 64 63 80 98 101 105 107 107 101 88 84 88 97 98 96 93 92 92 91 88 88 85 81 79 77 73 69
31 20 28 20 17 18 31 29 35 37 12 9 23 52 27 20 52 74 81 93 91 97 106 106 104 99 82 79 81 92 102 98 95 92 93 93 89 86 87 88 86 84 78 73
16 24 31 15 16 28 41 27 32 27 3 18 6 46 5 15 30 33 63 73 89 96 100 107 110 94 74 73 77 86 98 100 94 94 95 99 99 91 92 91 90 87 81 76
19 7 11 19 42 20 32 11 15 7 9 8 14 11 8 19 19 34 44 73 87 91 92 97 92 78 67 69 72 83 94 100 96 93 92 92 94 90 85 88 88 84 81 79
28 7 10 16 9 17 1 4 6 8 5 10 27 21 65 14 22 19 25 68 87 87 88 101 69 46 57 64 70 84 94 99 93 89 89 91 90 88 88 90 86 83 84 83
6 13 10 16 10 5 9 9 7 6 1 19 6 16 57 12 13 20 31 57 75 81 83 87 63 49 55 64 74 85 89 93 90 88 89 89 88 89 86 86 85 86 87 88
5 36 17 10 24 17 19 23 13 17 20 31 13 15 30 24 28 52 64 78 81 89 85 68 51 45 49 58 71 81 84 89 88 88 87 87 89 89 87 86 85 86 85 84
11 21 4 10 6 18 6 13 29 9 2 3 12 30 33 25 20 17 31 60 72 87 86 61 49 48 49 57 66 70 79 83 83 82 84 91 93 92 91 89 86 84 84 82
11 21 4 8 4 7 13 1 3 3 6 13 15 14 27 39 19 28 27 33 70 70 71 52 49 48 48 53 56 60 66 77 75 77 84 89 91 93 95 95 90 87 84 83
3 11 20 2 15 14 2 8 9 3 8 30 35 24 60 48 20 17 20 26 39 32 29 37 45 45 45 41 49 53 62 69 76 76 74 78 86 96 103 102 95 90 85 80
17 10 13 40 37 12 14 22 32 24 31 21 32 37 57 42 13 16 18 39 29 36 39 35 36 40 39 36 47 50 54 63 63 68 76 79 87 92 98 103 100 94 89 82
11 6 13 8 20 37 29 35 39 33 35 48 41 38 59 51 51 37 30 58 59 62 56 34 25 31 37 41 46 54 59 63 66 73 77 84 91 94 92 95 95 94 92 85
25 33 35 38 38 6 12 38 44 45 33 50 45 58 58 68 51 43 57 78 74 77 81 78 73 68 72 76 72 72 76 64 61 68 82 90 90 88 85 89 92 92 91 87
16 38 40 48 57 58 58 56 53 45 47 33 48 46 43 62 66 47 49 47 41 55 64 69 73 81 92 96 87 87 74 70 75 83 90 92 88 87 88 89 89 87 87 84
16 17 32 49 49 54 63 63 63 69 66 55 57 60 58 71 94 71 65 68 57 58 69 79 85 87 101 91 70 80 93 94 88 90 89 88 90 88 89 87 84 84 84 83
17 14 19 42 29 33 45 61 61 63 57 45 52 61 56 54 47 53 55 40 45 53 65 63 65 75 85 95 98 102 99 103 99 88 90 87 87 87 84 80 81 83 84 81
44 44 29 40 37 58 46 23 37 55 61 30 27 35 32 36 56 45 48 57 58 62 69 81 86 77 68 84 91 93 92 77 79 87 81 78 79 78 78 76 76 79 81 82
45 39 18 20 37 44 37 15 15 13 8 31 30 39 29 56 58 11 62 69 67 68 77 84 90 90 91 71 57 56 71 82 80 78 67 67 70 71 72 72 74 78 80 83
23 19 26 20 27 14 14 28 50 22 21 42 25 31 24 45 22 27 78 71 75 79 81 93 91 88 87 82 65 49 47 64 66 60 56 60 65 66 69 71 73 75 78 80
8 10 18 28 27 13 30 39 57 10 21 44 26 32 38 22 25 58 74 72 77 76 83 87 89 89 72 77 68 60 42 45 49 50 49 53 57 60 64 67 72 75 80 85
11 10 7 10 9 24 60 37 15 22 43 28 27 34 39 49 67 70 72 80 76 83 81 71 77 84 76 64 70 63 54 43 41 38 39 47 54 59 65 65 70 74 81 85
8 9 6 11 12 43 45 30 54 49 16 19 45 67 62 59 58 61 66 66 71 73 78 76 73 79 89 73 61 67 62 63 59 46 39 44 52 57 64 67 74 78 85 91
8 8 7 7 15 28 49 59 37 26 42 56 50 54 61 52 61 57 58 74 73 79 80 74 71 76 88 79 75 64 61 61 65 62 66 61 49 52 57 60 72 80 89 98
15 8 15 21 35 49 43 53 45 44 47 45 50 65 61 41 69 60 64 73 75 76 77 72 68 76 88 85 90 81 65 71 70 69 72 67 65 62 59 63 78 88 93 98
31 33 24 32 47 42 56 67 51 47 36 51 58 57 69 58 63 70 78 82 73 80 80 89 92 90 98 92 96 82 72 68 74 77 77 81 76 75 73 75 83 86 93 91
Wind_Direction_850mb
181 138 210 227 211 229 195 225 233 248 249 206 235 241 247 266 261 248 260 265 263 262 267 262 256 257 257 253 249 246 239 239 231 226 224 225 227 227 228 229 230 232 234 236
153 214 226 240 216 227 243 253 261 269 261 230 266 259 245 247 263 266 253 255 262 265 269 268 263 263 260 257 253 245 239 238 234 229 227 228 229 230 232 232 232 233 234 236
227 228 228 223 233 234 232 234 252 255 297 233 295 278 234 241 246 263 265 262 262 260 266 267 264 264 264 256 248 242 240 237 233 229 225 228 229 230 230 230 232 233 234 235
237 246 227 195 221 212 263 218 251 260 278 274 146 295 163 210 232 248 261 262 261 266 266 266 264 263 255 255 250 243 239 235 231 229 227 228 229 228 230 232 234 234 234 236
243 196 189 219 234 185 258 187 228 229 201 341 184 252 250 217 235 247 252 259 264 268 269 265 262 264 261 251 245 240 235 231 228 228 231 231 232 234 236 236 236 236 238 239
249 205 201 220 196 200 179 86 50 51 98 278 233 192 283 197 210 235 253 256 265 269 266 268 272 257 248 242 238 237 231 228 228 229 231 232 232 234 234 235 235 236 239 239
327 230 230 188 238 185 171 102 293 326 122 230 172 175 256 261 258 223 235 254 265 267 267 263 270 239 231 233 235 235 229 226 227 228 231 233 233 236 236 238 239 238 237 238
216 288 176 168 205 199 206 199 189 204 247 261 110 229 261 226 237 242 248 253 266 264 268 267 250 235 235 226 234 235 230 226 227 229 232 232 232 235 237 239 241 242 243 244
198 258 193 189 174 157 196 191 231 288 355 21 261 273 298 269 271 293 273 270 266 264 270 260 231 228 231 228 232 236 233 229 231 234 235 234 234 235 237 240 240 243 245 245
252 267 346 17 333 250 194 173 84 214 204 235 225 243 260 275 289 277 289 278 283 284 273 253 238 236 226 233 236 236 236 236 236 235 236 239 240 241 241 242 242 242 245 245
209 227 262 2 206 222 242 245 227 244 198 256 264 255 261 277 266 273 280 332 351 331 318 272 248 237 235 235 238 236 236 233 236 237 241 244 247 247 245 245 244 244 245 245
208 188 220 242 265 221 220 248 238 239 246 238 254 254 268 271 256 276 264 292 314 326 320 297 270 254 247 240 239 236 234 235 238 241 242 245 247 248 248 248 247 246 246 244
184 228 258 202 271 269 247 246 234 247 254 253 256 260 262 268 270 246 259 283 298 305 305 300 289 275 264 253 244 249 249 242 237 240 245 247 247 247 249 251 250 248 245 241
238 250 247 258 258 242 233 235 245 243 251 253 250 259 266 270 267 266 266 271 281 287 288 289 284 276 274 279 272 273 258 247 251 253 255 251 250 252 252 250 249 246 244 239
230 252 248 251 252 262 258 260 261 243 240 241 256 257 257 268 269 269 272 280 295 295 289 285 278 274 274 273 269 263 255 250 266 262 258 256 256 253 250 248 246 244 242 238
315 282 283 271 253 243 249 255 256 256 256 262 262 259 256 263 275 282 278 289 285 283 284 280 279 276 277 273 263 260 271 267 268 258 256 254 252 250 246 245 243 241 237 233
264 279 282 273 290 298 279 245 254 258 266 258 259 261 266 273 280 290 310 23 21 352 347 344 323 301 285 279 274 271 272 272 265 256 252 249 249 248 247 243 239 238 234 230
254 261 259 274 289 268 270 230 234 247 255 309 12 20 16 352 323 325 23 19 1 349 341 339 345 344 317 292 284 279 275 263 256 255 250 246 246 246 243 239 236 233 228 226
232 244 262 254 260 273 253 30 344 339 132 25 343 347 1 352 339 62 357 343 328 327 329 331 333 332 336 333 299 283 271 259 250 244 243 247 247 243 240 235 232 229 224 223
323 276 259 285 281 285 24 345 331 291 207 16 351 329 8 343 341 316 329 331 330 329 325 327 330 330 332 335 342 308 278 257 249 244 245 250 247 244 240 235 232 230 226 225
350 319 257 267 273 286 13 359 345 286 337 335 341 353 337 341 329 318 321 321 320 319 314 320 321 323 330 329 335 347 311 272 251 244 251 254 252 247 241 235 231 226 221 219
277 287 355 345 313 253 359 351 348 293 312 328 345 337 321 308 308 308 309 312 315 316 316 313 318 316 315 315 321 320 324 323 304 293 275 265 257 249 242 235 231 224 221 220
274 180 222 187 234 295 310 304 307 301 289 314 325 319 316 311 308 305 308 311 311 307 305 308 311 312 310 301 299 314 312 307 301 301 295 283 262 247 241 236 231 221 219 219
261 242 211 316 261 279 286 294 287 301 311 312 308 301 307 305 304 306 308 309 307 305 306 308 310 306 302 304 302 283 296 303 284 281 277 274 262 255 244 239 235 228 224 221
233 279 245 268 277 282 283 294 306 300 303 290 299 306 306 305 305 306 305 304 304 304 306 307 306 299 293 293 291 290 285 288 288 272 263 257 250 245 247 249 241 236 233 231
240 254 260 265 278 289 288 295 302 304 304 311 312 307 307 306 303 306 305 306 300 300 300 302 305 300 292 291 286 284 288 290 289 275 266 254 247 244 242 240 237 232 234 233